CAPE
2510 2735 2989 3085 3026 2709 2618 2202 1660 1437 1951 1322 919 1104 1334 1419 1818 1594 1369 1456 1707 1658 1745 2101 2798 2772 1846 1714 2850 2573 2516 2875 2269 3003 3201 2795 2730 2193 1947 1646 1533 1667
2563 2824 3147 3097 2751 2484 2124 2019 1868 2032 2346 1956 1696 1247 1594 1426 965 1525 1549 1429 1590 1362 1966 2394 2616 2595 2232 1702 2740 2410 3038 2512 2514 2067 3078 3024 2761 2588 1996 1818 2387 2122
2564 2576 2828 2736 2596 2054 1818 1878 2021 2066 1716 1422 1181 1058 1154 1266 1072 1290 1370 1495 1231 967 2052 1997 2060 2373 2067 2573 3177 2904 2412 3215 2504 1984 2263 2616 2795 2645 2501 2288 2185 2171
2101 2334 2096 2489 2415 2084 1890 1626 1693 1662 1658 1270 650 674 730 602 918 1084 1369 2065 1470 1376 1468 1810 1864 1777 1871 2248 3035 2629 2395 3077 2558 2831 2725 2911 2861 2326 2024 2194 1831 1686
1842 2179 1883 2112 2257 1803 2205 1674 1492 2008 1280 1157 1164 682 678 1050 1300 789 1500 1556 1880 1872 1843 2158 2274 2037 2378 2919 3248 2818 2266 2658 3017 3672 3470 3116 3082 2590 2088 1902 1965 1957
2062 2180 2314 2000 2173 2366 2419 1854 1820 2058 1562 1482 1038 925 1017 1061 1057 1042 1270 1682 1534 1512 1198 975 1672 1849 1944 2829 3027 2772 2578 2076 2497 3532 3351 2980 2546 2221 1960 1895 2013 1901
1697 1902 1965 2169 1949 1863 2069 1852 1809 1937 1637 1285 1472 1490 1399 1319 1359 1139 1417 1656 1478 1473 971 1342 1846 1508 1730 2389 2862 2991 2830 2690 2753 3460 3295 3243 3401 3139 2354 1918 2248 2240
1976 2152 2064 2541 2165 2032 2013 1765 1477 1656 1725 1514 1588 2267 1792 1678 1571 1064 1303 1500 1227 1028 1141 1124 1789 2206 2182 1552 2227 2613 2525 1990 2782 3238 3791 3524 3329 3008 2515 2106 2018 2353
1655 1749 1751 1729 1664 2583 2336 2110 2091 2154 1990 2009 2289 2279 2198 1930 1828 1219 1170 1502 1457 1279 1350 1344 1740 1936 1778 1648 1798 2695 2564 2274 2336 2296 3067 3484 3080 2758 2295 2335 2320 2477
1315 1276 1509 1666 1823 2005 2478 2359 2346 2336 2592 3049 3192 2704 2130 2034 2069 1758 1205 1843 1970 1740 1606 1486 1643 2068 1765 1444 1958 2936 3299 3140 2678 2521 2364 2967 2818 2531 2266 2158 2376 2426
1626 1526 1506 1645 1771 1811 2218 2490 2297 2143 2092 2185 2640 3261 2988 2162 2503 2628 2590 2740 1921 1468 1379 1532 1592 1726 2189 2021 1986 2181 2758 2947 2920 2890 2612 2660 2548 2385 2586 2540 2517 2614
1616 1502 1438 1564 1810 1823 2138 2730 2848 2726 2460 2378 2538 2833 3338 3528 3464 2264 2751 3430 2603 1772 1300 1473 1798 1727 1887 2148 3094 3145 3500 2950 2752 2465 2060 1916 1928 1671 1437 1675 1333 1924
1536 1446 1420 1610 1918 2266 1994 2179 2452 2621 2374 2118 2390 2560 2720 2820 3377 2919 3026 2490 2843 2342 1682 1440 1458 1821 2591 4030 3166 3027 2436 2477 2229 1655 1717 1820 2118 1729 1034 964 1583 1680
1219 1436 1443 1506 1623 1704 1762 1843 1923 2047 2180 2306 2644 2416 2545 2958 2947 3153 3242 2669 2583 2862 2134 1618 2941 3995 3708 3386 2735 2132 1870 1756 1868 1798 1986 1863 1804 1398 1468 1665 1892 1656
1140 1154 1366 1608 1570 1647 1423 1358 1660 1810 1882 1923 1946 1880 1849 2765 2602 2505 2937 3078 2651 1939 1565 2545 2873 3324 3480 2944 2512 2091 1750 1752 1840 1681 1795 1807 1499 1452 1458 1820 2025 1805
1122 1053 1010 1176 1360 1404 1411 1337 1308 1471 1682 1602 1762 1803 2016 1970 2072 2034 1979 1884 1830 2416 2598 1953 2178 2627 2656 2415 2405 2320 1624 1312 1488 1768 1950 1818 1776 1501 1190 1330 1541 1466
1386 1278 1180 1135 1242 1366 1279 1132 1043 1022 1210 1488 1638 1756 1987 2026 1818 1730 1653 1646 1495 1451 1492 1523 1437 2357 2439 1454 1489 1698 1943 1668 1591 1561 1516 1480 1781 1844 1525 1420 1682 2056
1340 1319 1124 1233 1276 1369 1477 1414 1372 1228 1127 1205 1438 1540 1649 1705 1609 1701 1775 1711 1623 1388 1668 1717 1504 1511 1682 1698 1605 1443 2063 1907 1711 1613 1640 1771 1849 1572 1217 1111 1614 1739
1569 1478 1322 1098 1150 1275 1357 1231 1147 1054 956 1117 1426 1608 1422 1200 1541 1658 1682 1915 1556 1664 1441 1266 1762 1626 1418 1508 1586 1504 1365 1845 1698 1545 1582 1544 1634 1490 1752 1892 2221 1623
1541 1439 1448 1319 1269 1391 1392 1356 1370 1464 1483 1380 1384 1204 1334 1353 1500 1648 1692 1652 1691 1730 1573 1924 1770 1514 1223 1335 1454 1629 1527 1360 1426 1440 1473 1367 1526 1450 1731 1908 1887 1487
1473 1357 1619 1770 1922 1656 1469 1747 1508 1498 1398 1538 1495 1313 1315 1296 1283 1375 1666 1646 1463 1808 1897 1807 1437 1662 1737 1628 1406 1405 1360 1174 1086 1544 1738 1540 1617 1995 2283 1981 1352 1013
1378 1322 1410 1589 1525 1685 1593 1504 1692 1624 1602 1357 1078 909 852 918 949 1036 922 736 1279 1774 1516 1884 1786 1448 1286 1340 1364 1334 1345 1271 1090 1531 1467 1401 1702 1812 2074 1776 1397 1178
1298 1470 1461 1525 1558 1399 1540 1396 1414 1434 1416 1110 770 810 918 823 714 576 555 828 893 1077 1285 1519 1974 1047 850 909 1029 1080 792 996 1009 1090 887 875 1316 1504 1737 1424 1023 940
1224 1320 1291 1409 1421 1464 1564 1657 1615 1393 1235 925 720 812 910 1003 859 868 832 659 606 620 882 1085 1571 1122 665 577 645 700 720 596 753 837 741 714 1126 1461 1748 1512 1283 1686
1324 1444 1482 1473 1377 1381 1424 1456 1302 1175 1120 977 871 884 989 1070 1112 1002 1081 964 1009 785 1049 972 1084 822 512 375 364 416 436 429 718 823 720 962 872 1105 1318 1255 821 1390
1696 1391 1346 1375 1337 1473 1677 1284 1165 1140 1033 1173 807 803 964 1066 1066 1235 1243 1075 1446 1352 761 889 826 579 500 469 476 332 244 610 645 925 823 981 1072 1320 1323 975 1044 1013
Wind_Speed
16 16 16 18 19 19 20 19 17 15 15 14 12 10 9 11 11 8 7 10 9 8 7 7 9 10 9 11 10 9 10 10 10 13 11 7 7 4 3 3 3 3
12 15 19 22 22 22 21 21 18 16 16 17 16 13 11 10 9 11 9 7 7 6 9 9 10 11 11 10 10 9 10 9 9 8 10 8 6 6 5 4 5 5
12 14 17 21 23 22 20 21 19 18 17 16 17 16 12 9 8 11 9 9 8 7 9 8 7 9 9 9 10 10 9 9 8 7 9 9 8 7 7 6 6 4
10 13 13 18 22 23 22 21 20 20 19 16 15 16 13 9 8 9 11 9 9 6 7 8 5 7 8 8 9 9 9 10 9 8 8 9 9 7 7 8 5 5
11 13 14 15 19 20 21 19 18 21 20 14 17 18 13 9 11 8 12 10 10 9 10 11 9 7 9 9 9 9 8 10 10 9 8 9 8 8 7 7 8 7
16 16 16 14 14 18 18 17 16 20 21 15 15 18 16 10 9 9 11 9 10 10 7 7 9 9 8 10 10 10 10 9 9 10 10 9 7 7 8 8 8 7
16 17 14 14 12 13 17 16 17 18 20 18 15 15 16 11 10 10 10 12 12 10 6 8 10 10 10 12 11 11 12 11 10 12 11 10 9 7 7 7 8 7
13 17 16 15 14 13 14 13 13 15 18 18 13 14 15 13 12 12 11 10 11 11 8 6 9 10 11 12 12 13 12 10 10 11 14 11 11 9 9 8 7 7
14 14 15 15 14 15 12 15 17 16 16 15 16 17 18 15 13 13 13 12 11 11 11 9 10 10 11 11 11 15 15 12 12 12 14 13 12 10 9 9 7 7
13 13 10 14 15 15 14 16 20 20 19 19 19 19 18 18 16 16 15 13 14 13 11 10 12 12 13 11 9 14 15 14 13 14 15 15 14 14 12 11 9 8
9 11 11 14 14 16 16 17 17 19 19 19 21 21 21 20 21 22 21 17 13 13 14 13 11 12 12 11 9 11 13 15 15 16 17 17 16 17 17 16 12 11
6 7 7 9 11 13 12 13 15 18 21 23 24 24 24 25 29 27 22 19 16 15 16 17 15 14 14 12 16 20 20 20 19 20 20 19 17 20 20 22 19 11
12 8 7 7 8 11 15 19 18 19 22 24 26 24 23 22 25 26 24 22 22 21 19 20 18 16 18 24 24 22 21 19 19 20 21 20 19 19 19 19 18 20
15 15 14 14 13 15 16 12 14 20 21 24 25 23 22 23 26 28 27 26 25 25 24 21 21 25 26 23 24 22 22 21 21 22 24 22 20 21 21 22 20 19
18 13 16 16 17 16 14 15 15 13 16 19 23 25 26 28 31 30 28 28 28 27 24 27 28 23 24 24 24 24 23 23 23 23 24 23 22 23 22 22 24 23
20 15 11 10 12 10 12 13 14 14 14 16 19 23 25 29 32 30 28 28 27 27 32 31 25 25 24 23 26 27 26 25 25 25 25 24 24 25 24 23 23 25
21 18 16 14 13 13 12 11 12 15 16 13 12 14 20 25 29 29 29 29 27 28 29 29 24 24 24 25 26 27 28 28 26 26 26 25 24 25 25 25 23 24
24 22 21 19 17 13 14 16 15 15 17 17 15 14 17 21 23 26 28 29 33 34 27 22 23 24 26 26 27 29 30 31 29 28 27 26 25 26 26 25 24 25
27 24 22 21 18 13 13 15 13 11 14 15 15 16 19 19 18 22 25 27 32 33 25 21 25 25 29 28 28 31 31 31 31 30 29 27 29 28 27 26 28 28
29 28 24 20 19 18 18 17 15 11 12 17 17 16 15 16 17 19 22 23 27 30 28 27 27 28 26 27 29 31 31 29 30 30 30 28 30 29 28 29 29 27
29 28 25 22 19 19 20 20 21 18 18 19 23 19 14 14 18 19 20 22 24 26 28 30 30 32 28 29 32 34 33 30 30 30 32 31 32 31 30 31 29 27
29 27 25 24 20 18 19 20 21 24 24 22 21 20 20 17 14 19 23 22 23 27 29 31 33 37 33 34 35 35 35 33 31 30 32 33 35 32 31 33 31 29
27 25 26 25 24 21 20 19 18 24 25 24 21 21 19 19 16 16 16 19 20 24 26 30 34 36 36 36 35 33 35 35 33 37 38 33 31 30 31 33 32 28
27 24 23 24 24 23 21 20 22 25 26 25 23 22 21 20 17 17 20 21 19 17 21 26 31 35 35 35 36 40 37 35 34 39 34 29 29 30 32 32 31 27
29 26 26 24 23 22 21 21 22 22 23 25 23 21 21 22 20 19 19 21 20 19 16 23 28 33 32 31 30 33 30 30 32 37 32 31 29 31 32 33 33 29
31 29 26 25 24 21 22 23 22 21 21 23 24 24 23 22 20 20 21 22 23 22 22 22 25 29 26 25 26 24 22 26 32 35 33 31 30 33 38 37 35 32
Wind_Direction
258 250 242 241 243 244 246 249 243 237 233 235 255 251 239 236 247 244 226 230 249 243 245 244 242 254 259 252 250 255 243 243 242 263 263 268 280 289 278 269 247 249
257 248 241 241 242 240 241 243 242 237 237 234 224 234 247 236 242 252 243 238 256 263 247 238 237 247 252 256 264 261 261 254 256 258 272 275 268 258 248 234 235 240
250 249 246 247 246 247 246 247 244 236 231 233 232 220 216 238 229 244 246 246 234 242 254 246 237 249 258 260 256 264 270 268 268 264 262 269 270 271 265 271 283 291
241 240 239 244 249 251 250 251 252 251 243 233 241 238 219 225 240 250 254 255 253 251 261 273 267 256 264 268 261 259 266 269 266 260 259 259 268 277 277 275 278 268
215 224 230 237 245 251 253 255 255 259 263 255 246 250 235 217 238 237 244 257 249 244 241 255 259 253 257 261 265 262 266 259 262 262 257 253 253 263 266 266 268 272
202 209 221 226 237 251 249 244 242 251 262 254 246 255 258 229 245 252 257 257 259 248 240 253 274 271 264 271 265 261 259 261 267 270 264 261 259 270 271 273 276 282
191 197 206 212 216 236 238 233 227 235 244 238 232 253 266 257 252 257 246 259 267 257 258 248 246 263 268 263 263 262 262 258 256 268 273 267 265 264 262 264 271 271
197 200 202 208 202 218 234 240 244 248 251 248 238 245 259 255 253 258 258 259 259 270 269 261 257 250 250 259 270 273 274 270 266 260 266 268 262 258 259 261 263 267
230 206 201 201 198 214 228 231 228 235 251 249 239 238 242 242 245 252 252 261 266 259 250 251 254 259 258 246 249 272 282 287 282 277 275 279 276 266 264 264 265 265
253 251 231 219 212 216 220 225 225 224 228 228 235 240 239 239 240 242 242 248 261 264 262 246 245 251 256 262 264 277 290 294 288 282 282 286 285 281 278 271 266 259
243 254 256 247 236 223 218 228 226 233 240 236 232 240 241 239 239 235 230 229 246 262 261 257 251 249 255 264 272 281 284 278 273 273 271 275 280 278 275 269 264 259
211 240 255 264 258 238 230 234 234 235 239 236 237 237 236 234 241 239 239 235 234 241 249 253 253 247 249 257 258 250 249 254 258 255 253 252 256 263 273 284 282 271
200 186 195 217 227 239 233 220 222 237 242 239 238 236 235 237 246 255 246 239 240 236 237 240 241 251 248 246 253 260 263 266 267 270 270 270 272 270 269 269 281 284
214 189 192 186 204 224 230 234 229 219 229 243 242 241 240 240 239 245 250 252 250 246 242 247 247 246 253 256 257 260 261 264 264 263 266 272 272 266 262 264 270 274
233 218 203 208 205 208 224 230 229 227 218 224 230 233 237 240 239 239 242 248 254 254 246 246 253 255 254 259 263 262 261 265 267 268 271 272 273 271 266 264 261 255
268 263 262 240 246 238 230 234 238 237 235 224 218 225 229 235 238 237 237 240 244 252 252 247 247 253 261 273 268 262 264 264 266 270 271 272 272 270 268 266 262 264
265 265 263 257 250 253 261 266 257 249 241 232 232 233 238 238 238 239 241 242 245 252 254 254 245 250 272 284 282 278 267 267 269 270 270 271 273 273 271 265 257 259
266 261 256 258 265 257 245 256 271 272 269 267 249 239 239 237 235 240 243 242 246 254 254 252 257 255 260 275 276 276 273 265 265 269 270 271 272 272 269 264 260 261
261 265 265 273 285 282 263 269 273 263 265 265 264 255 246 244 244 244 244 243 248 255 263 262 255 254 265 272 275 276 275 269 262 266 268 271 271 271 271 268 267 269
261 263 262 263 273 275 273 276 284 280 269 275 272 267 265 264 262 253 249 247 248 256 262 263 258 260 267 272 275 275 273 268 261 264 263 266 269 269 268 269 270 270
259 262 262 261 267 275 275 275 280 282 275 265 269 271 264 256 247 244 249 250 250 251 254 258 253 264 268 268 270 273 273 269 259 260 261 261 262 264 263 265 267 268
247 258 259 257 253 259 262 263 273 281 278 266 261 266 267 260 248 241 235 236 242 247 248 252 254 259 259 260 263 266 272 263 256 254 254 253 256 258 261 262 264 264
243 250 253 252 257 260 267 269 267 275 277 273 268 264 260 261 257 253 251 252 242 241 249 254 256 257 256 257 260 266 263 257 252 249 249 247 255 262 264 264 265 264
240 247 256 255 253 259 263 266 270 272 273 268 268 272 275 271 262 260 257 256 251 246 247 255 258 262 264 257 259 260 262 258 254 254 255 254 255 259 262 262 263 269
240 243 252 256 258 261 265 268 270 272 271 268 262 263 271 270 267 261 264 266 263 263 265 255 254 257 261 262 263 266 264 257 251 254 258 260 261 260 261 261 258 255
234 234 243 250 257 262 263 269 274 276 275 271 266 267 267 267 267 265 261 257 259 261 258 257 256 257 257 265 269 272 269 252 248 249 253 258 265 266 261 259 259 256